Location: Champs
(48.8539°N, 2.6040°E)
Time: 20:08:01
(UTC+00:00)

ATLAS CENTAUR R/B - Pass Details

Date: 03 June 2022
Orbit: 443 x 688 km, 64.6° (Epoch: 07 June)

Event Time Altitude Azimuth Distance (km) Brightness Sun altitude
Rises 20:50:43 0° 319° (NW) 3,060 7.7 -8.6°
Reaches altitude 10° 20:53:06 10° 317° (NW) 2,129 6.0 -8.8°
Maximum altitude 20:57:56 70° 236° (SW) 708 1.9 -9.3°
Enters shadow 21:02:07 13° 153° (SSE) 1,858 3.4 -9.7°
